QPF
0.01 0.01 0.01 0.01 0.02 0.02 0.01 0.01 0.01 0.01 0.01 0.02 0.02 0.02 0.02 0.02 0.02 0.02 0.02 0.02 0.03 0.03 0.03 0.03 0.03 0.03 0.03 0.03 0.03 0.03 0.03 0.04 0.05 0.04 0.03 0.03 0.02 0.02 0.02 0.02 0.02 0.03 0.03
0.00 0.00 0.01 0.01 0.01 0.02 0.02 0.01 0.01 0.01 0.01 0.01 0.02 0.02 0.02 0.02 0.02 0.03 0.03 0.02 0.02 0.03 0.03 0.03 0.03 0.04 0.04 0.04 0.03 0.03 0.03 0.04 0.04 0.04 0.03 0.03 0.02 0.02 0.02 0.02 0.03 0.04 0.05
0.00 0.00 0.00 0.00 0.01 0.01 0.02 0.02 0.02 0.01 0.02 0.02 0.02 0.02 0.02 0.02 0.02 0.03 0.03 0.02 0.02 0.02 0.03 0.03 0.04 0.04 0.04 0.04 0.03 0.03 0.04 0.04 0.05 0.05 0.04 0.03 0.02 0.02 0.02 0.03 0.04 0.04 0.05
0.00 0.00 0.00 0.00 0.00 0.01 0.01 0.02 0.02 0.02 0.02 0.02 0.02 0.03 0.03 0.02 0.02 0.03 0.03 0.02 0.02 0.02 0.02 0.03 0.03 0.04 0.04 0.04 0.04 0.04 0.04 0.05 0.06 0.06 0.04 0.04 0.02 0.02 0.03 0.04 0.04 0.04 0.03
0.00 0.00 0.00 0.00 0.01 0.01 0.01 0.01 0.02 0.02 0.02 0.02 0.02 0.02 0.03 0.03 0.03 0.03 0.03 0.03 0.03 0.03 0.03 0.03 0.03 0.03 0.04 0.04 0.04 0.04 0.04 0.05 0.06 0.05 0.05 0.05 0.03 0.02 0.03 0.03 0.03 0.03 0.02
0.00 0.00 0.00 0.00 0.01 0.01 0.01 0.01 0.01 0.02 0.02 0.02 0.02 0.02 0.02 0.02 0.03 0.03 0.03 0.03 0.03 0.03 0.03 0.03 0.03 0.03 0.03 0.04 0.04 0.04 0.04 0.05 0.05 0.05 0.04 0.03 0.02 0.02 0.02 0.02 0.02 0.02 0.02
0.00 0.00 0.00 0.00 0.01 0.01 0.01 0.01 0.01 0.02 0.03 0.02 0.02 0.02 0.02 0.02 0.03 0.03 0.03 0.03 0.03 0.03 0.03 0.02 0.02 0.02 0.03 0.03 0.03 0.03 0.03 0.03 0.04 0.04 0.03 0.02 0.02 0.02 0.02 0.02 0.02 0.02 0.02
0.00 0.00 0.00 0.00 0.01 0.01 0.01 0.01 0.01 0.02 0.03 0.04 0.02 0.02 0.02 0.02 0.02 0.02 0.03 0.03 0.03 0.03 0.03 0.03 0.03 0.02 0.03 0.03 0.03 0.03 0.02 0.02 0.02 0.03 0.03 0.02 0.02 0.03 0.03 0.04 0.03 0.03 0.03
0.00 0.00 0.00 0.00 0.01 0.01 0.01 0.01 0.01 0.02 0.03 0.05 0.05 0.03 0.02 0.02 0.02 0.02 0.03 0.03 0.02 0.02 0.02 0.03 0.03 0.02 0.03 0.03 0.03 0.03 0.02 0.02 0.02 0.02 0.03 0.03 0.03 0.03 0.04 0.04 0.04 0.04 0.04
0.00 0.00 0.00 0.01 0.01 0.01 0.01 0.01 0.01 0.02 0.02 0.03 0.06 0.06 0.04 0.03 0.03 0.03 0.03 0.02 0.02 0.02 0.02 0.02 0.02 0.02 0.03 0.03 0.03 0.03 0.03 0.02 0.02 0.02 0.02 0.02 0.02 0.03 0.04 0.04 0.04 0.04 0.04
0.00 0.00 0.01 0.01 0.01 0.01 0.01 0.01 0.02 0.02 0.02 0.02 0.04 0.06 0.06 0.05 0.05 0.04 0.04 0.03 0.03 0.02 0.02 0.02 0.02 0.02 0.03 0.03 0.03 0.04 0.04 0.03 0.03 0.03 0.03 0.02 0.02 0.02 0.02 0.03 0.03 0.04 0.04
0.01 0.01 0.01 0.01 0.01 0.01 0.01 0.01 0.02 0.02 0.02 0.02 0.03 0.04 0.05 0.06 0.06 0.05 0.05 0.04 0.04 0.03 0.02 0.02 0.02 0.03 0.03 0.04 0.04 0.04 0.03 0.04 0.03 0.03 0.03 0.03 0.03 0.03 0.03 0.03 0.03 0.03 0.03
0.01 0.01 0.01 0.01 0.01 0.01 0.02 0.02 0.02 0.02 0.02 0.02 0.02 0.02 0.03 0.03 0.04 0.05 0.05 0.05 0.05 0.04 0.03 0.03 0.03 0.03 0.03 0.03 0.03 0.03 0.04 0.04 0.03 0.03 0.03 0.03 0.04 0.04 0.04 0.03 0.03 0.03 0.03
0.01 0.01 0.01 0.01 0.01 0.01 0.01 0.02 0.02 0.02 0.02 0.02 0.02 0.02 0.02 0.02 0.03 0.03 0.03 0.04 0.04 0.04 0.04 0.04 0.03 0.02 0.03 0.03 0.03 0.03 0.03 0.04 0.04 0.04 0.03 0.04 0.04 0.04 0.04 0.04 0.03 0.03 0.03
0.01 0.01 0.01 0.01 0.01 0.01 0.01 0.02 0.02 0.02 0.03 0.03 0.03 0.03 0.03 0.02 0.02 0.03 0.03 0.03 0.04 0.04 0.05 0.04 0.03 0.03 0.03 0.03 0.03 0.03 0.03 0.03 0.03 0.03 0.03 0.04 0.04 0.04 0.04 0.04 0.03 0.03 0.03
0.01 0.01 0.01 0.01 0.01 0.01 0.01 0.02 0.02 0.03 0.03 0.04 0.05 0.04 0.04 0.03 0.03 0.03 0.04 0.04 0.04 0.05 0.05 0.04 0.04 0.03 0.03 0.03 0.03 0.03 0.03 0.03 0.03 0.03 0.03 0.03 0.04 0.04 0.04 0.04 0.04 0.04 0.03
0.01 0.01 0.01 0.01 0.01 0.01 0.01 0.02 0.02 0.03 0.03 0.03 0.04 0.05 0.05 0.05 0.04 0.04 0.04 0.04 0.04 0.04 0.04 0.04 0.03 0.03 0.03 0.02 0.02 0.02 0.02 0.03 0.03 0.03 0.03 0.03 0.04 0.04 0.04 0.04 0.05 0.05 0.04
0.02 0.02 0.02 0.02 0.02 0.02 0.02 0.02 0.02 0.03 0.03 0.03 0.03 0.04 0.05 0.05 0.05 0.05 0.04 0.04 0.03 0.03 0.03 0.03 0.03 0.03 0.03 0.03 0.02 0.02 0.03 0.03 0.03 0.03 0.04 0.04 0.04 0.04 0.03 0.03 0.04 0.04 0.04
0.02 0.02 0.02 0.03 0.03 0.03 0.03 0.03 0.03 0.03 0.03 0.03 0.03 0.03 0.03 0.03 0.03 0.03 0.03 0.03 0.02 0.02 0.02 0.03 0.03 0.03 0.02 0.03 0.03 0.03 0.03 0.03 0.03 0.03 0.04 0.04 0.04 0.04 0.04 0.03 0.03 0.04 0.04
0.01 0.02 0.02 0.02 0.02 0.02 0.02 0.03 0.03 0.03 0.03 0.03 0.03 0.03 0.03 0.03 0.03 0.03 0.03 0.02 0.02 0.03 0.03 0.03 0.03 0.03 0.02 0.03 0.03 0.03 0.03 0.03 0.03 0.03 0.03 0.03 0.04 0.04 0.04 0.04 0.03 0.03 0.04
0.02 0.02 0.02 0.02 0.02 0.02 0.02 0.02 0.02 0.03 0.03 0.03 0.03 0.04 0.04 0.04 0.04 0.03 0.03 0.03 0.03 0.03 0.03 0.03 0.03 0.03 0.02 0.03 0.03 0.03 0.03 0.03 0.03 0.04 0.04 0.04 0.04 0.04 0.04 0.04 0.04 0.04 0.03
0.02 0.02 0.01 0.01 0.01 0.02 0.02 0.02 0.02 0.03 0.02 0.02 0.03 0.04 0.04 0.04 0.04 0.04 0.04 0.04 0.04 0.04 0.03 0.03 0.03 0.02 0.02 0.03 0.03 0.03 0.03 0.03 0.03 0.03 0.04 0.04 0.04 0.04 0.04 0.04 0.04 0.04 0.04
0.01 0.01 0.01 0.01 0.01 0.01 0.01 0.02 0.02 0.02 0.02 0.02 0.02 0.03 0.03 0.03 0.03 0.03 0.04 0.04 0.04 0.03 0.03 0.03 0.03 0.03 0.03 0.03 0.03 0.03 0.03 0.03 0.03 0.04 0.04 0.04 0.04 0.03 0.03 0.03 0.03 0.03 0.03
0.01 0.01 0.01 0.01 0.01 0.01 0.01 0.01 0.02 0.02 0.02 0.02 0.02 0.02 0.02 0.02 0.03 0.03 0.03 0.03 0.03 0.03 0.03 0.03 0.02 0.02 0.02 0.02 0.02 0.02 0.02 0.03 0.03 0.03 0.03 0.03 0.03 0.03 0.03 0.03 0.02 0.02 0.02
0.01 0.01 0.01 0.01 0.01 0.01 0.01 0.01 0.01 0.02 0.02 0.02 0.02 0.02 0.02 0.02 0.02 0.02 0.02 0.02 0.02 0.02 0.02 0.02 0.02 0.02 0.02 0.02 0.02 0.02 0.02 0.02 0.02 0.03 0.03 0.03 0.02 0.02 0.02 0.02 0.02 0.02 0.02
0.01 0.01 0.01 0.01 0.01 0.01 0.01 0.01 0.01 0.01 0.02 0.02 0.02 0.02 0.02 0.02 0.02 0.02 0.02 0.02 0.02 0.02 0.02 0.02 0.01 0.01 0.01 0.01 0.01 0.02 0.02 0.02 0.02 0.02 0.02 0.02 0.02 0.02 0.02 0.02 0.02 0.02 0.02
MSLP
1017.69 1017.79 1018.02 1018.37 1018.84 1019.42 1020.06 1020.75 1021.43 1022.10 1022.71 1023.25 1023.72 1024.13 1024.48 1024.79 1025.08 1025.36 1025.62 1025.88 1026.13 1026.37 1026.59 1026.79 1026.94 1027.04 1027.07 1026.99 1026.79 1026.44 1025.94 1025.28 1024.47 1023.53 1022.51 1021.45 1020.39 1019.35 1018.38 1017.46 1016.60 1015.78 1014.96
1017.81 1017.79 1017.91 1018.18 1018.59 1019.12 1019.74 1020.41 1021.09 1021.74 1022.33 1022.86 1023.31 1023.69 1024.02 1024.31 1024.57 1024.81 1025.06 1025.30 1025.53 1025.76 1025.97 1026.18 1026.35 1026.49 1026.56 1026.56 1026.46 1026.22 1025.85 1025.32 1024.64 1023.83 1022.91 1021.92 1020.90 1019.89 1018.91 1017.96 1017.05 1016.18 1015.32
1018.02 1017.88 1017.89 1018.07 1018.41 1018.88 1019.44 1020.07 1020.71 1021.32 1021.89 1022.38 1022.80 1023.16 1023.46 1023.72 1023.96 1024.19 1024.42 1024.65 1024.88 1025.11 1025.33 1025.54 1025.73 1025.91 1026.04 1026.11 1026.09 1025.97 1025.71 1025.31 1024.77 1024.08 1023.27 1022.37 1021.41 1020.43 1019.45 1018.49 1017.56 1016.65 1015.75
1018.37 1018.11 1018.00 1018.07 1018.30 1018.67 1019.16 1019.71 1020.29 1020.84 1021.36 1021.81 1022.20 1022.53 1022.81 1023.06 1023.30 1023.53 1023.76 1023.99 1024.23 1024.46 1024.69 1024.92 1025.14 1025.34 1025.52 1025.65 1025.71 1025.68 1025.53 1025.25 1024.82 1024.25 1023.55 1022.74 1021.86 1020.93 1019.98 1019.03 1018.09 1017.16 1016.24
1018.89 1018.49 1018.25 1018.18 1018.28 1018.53 1018.90 1019.34 1019.82 1020.30 1020.75 1021.15 1021.51 1021.82 1022.10 1022.35 1022.60 1022.85 1023.10 1023.35 1023.60 1023.84 1024.09 1024.33 1024.56 1024.79 1025.00 1025.18 1025.30 1025.34 1025.28 1025.10 1024.77 1024.31 1023.71 1023.00 1022.20 1021.34 1020.44 1019.53 1018.61 1017.71 1016.80
1019.57 1019.04 1018.65 1018.42 1018.36 1018.45 1018.67 1018.97 1019.33 1019.71 1020.08 1020.43 1020.75 1021.06 1021.34 1021.62 1021.89 1022.17 1022.44 1022.72 1022.99 1023.25 1023.50 1023.75 1023.99 1024.23 1024.46 1024.66 1024.82 1024.91 1024.92 1024.82 1024.59 1024.22 1023.73 1023.11 1022.41 1021.63 1020.82 1019.98 1019.12 1018.26 1017.40
1020.40 1019.73 1019.19 1018.80 1018.56 1018.46 1018.50 1018.63 1018.85 1019.10 1019.38 1019.67 1019.97 1020.26 1020.56 1020.87 1021.18 1021.49 1021.80 1022.10 1022.38 1022.65 1022.91 1023.15 1023.39 1023.62 1023.85 1024.06 1024.25 1024.38 1024.44 1024.40 1024.25 1023.98 1023.59 1023.08 1022.49 1021.82 1021.11 1020.37 1019.61 1018.83 1018.03
1021.31 1020.54 1019.85 1019.28 1018.86 1018.57 1018.41 1018.36 1018.41 1018.53 1018.71 1018.93 1019.18 1019.47 1019.78 1020.11 1020.45 1020.80 1021.14 1021.46 1021.75 1022.03 1022.27 1022.50 1022.73 1022.95 1023.17 1023.38 1023.58 1023.74 1023.85 1023.87 1023.80 1023.62 1023.33 1022.94 1022.47 1021.92 1021.33 1020.71 1020.06 1019.39 1018.68
1022.26 1021.39 1020.59 1019.87 1019.26 1018.78 1018.42 1018.18 1018.06 1018.03 1018.09 1018.23 1018.43 1018.70 1019.01 1019.35 1019.71 1020.08 1020.44 1020.77 1021.07 1021.34 1021.57 1021.79 1022.00 1022.21 1022.42 1022.64 1022.85 1023.04 1023.19 1023.27 1023.28 1023.19 1023.01 1022.73 1022.38 1021.97 1021.50 1021.01 1020.48 1019.92 1019.32
1023.20 1022.27 1021.36 1020.51 1019.75 1019.09 1018.55 1018.12 1017.82 1017.63 1017.56 1017.60 1017.73 1017.95 1018.24 1018.58 1018.95 1019.32 1019.69 1020.02 1020.32 1020.58 1020.81 1021.02 1021.22 1021.43 1021.64 1021.87 1022.11 1022.34 1022.53 1022.68 1022.76 1022.76 1022.67 1022.51 1022.27 1021.97 1021.63 1021.25 1020.84 1020.39 1019.90
1024.09 1023.13 1022.16 1021.22 1020.33 1019.51 1018.79 1018.19 1017.71 1017.36 1017.15 1017.06 1017.10 1017.25 1017.49 1017.79 1018.14 1018.51 1018.87 1019.20 1019.50 1019.76 1020.00 1020.21 1020.43 1020.65 1020.89 1021.15 1021.42 1021.69 1021.94 1022.15 1022.30 1022.38 1022.38 1022.30 1022.15 1021.96 1021.71 1021.43 1021.12 1020.77 1020.37
1024.94 1023.98 1022.98 1021.97 1020.97 1020.03 1019.16 1018.40 1017.75 1017.23 1016.86 1016.63 1016.55 1016.60 1016.75 1017.00 1017.30 1017.64 1017.98 1018.31 1018.61 1018.89 1019.15 1019.39 1019.64 1019.90 1020.18 1020.49 1020.81 1021.13 1021.43 1021.70 1021.91 1022.05 1022.12 1022.11 1022.03 1021.91 1021.74 1021.53 1021.29 1021.01 1020.69
1025.76 1024.81 1023.80 1022.75 1021.69 1020.64 1019.65 1018.74 1017.93 1017.25 1016.71 1016.32 1016.09 1016.01 1016.06 1016.21 1016.44 1016.73 1017.05 1017.37 1017.68 1017.98 1018.28 1018.57 1018.87 1019.19 1019.54 1019.90 1020.28 1020.66 1021.01 1021.33 1021.59 1021.77 1021.88 1021.91 1021.88 1021.80 1021.67 1021.51 1021.32 1021.10 1020.84
1026.56 1025.64 1024.63 1023.56 1022.45 1021.34 1020.25 1019.21 1018.26 1017.41 1016.71 1016.15 1015.76 1015.52 1015.43 1015.47 1015.61 1015.83 1016.10 1016.40 1016.72 1017.06 1017.39 1017.75 1018.12 1018.51 1018.92 1019.35 1019.79 1020.21 1020.61 1020.97 1021.26 1021.47 1021.61 1021.67 1021.66 1021.60 1021.50 1021.37 1021.21 1021.03 1020.83
1027.36 1026.45 1025.46 1024.39 1023.26 1022.10 1020.93 1019.80 1018.72 1017.74 1016.87 1016.14 1015.58 1015.17 1014.92 1014.82 1014.84 1014.97 1015.18 1015.45 1015.77 1016.12 1016.50 1016.91 1017.34 1017.79 1018.27 1018.76 1019.25 1019.72 1020.16 1020.54 1020.85 1021.09 1021.24 1021.32 1021.33 1021.29 1021.21 1021.10 1020.98 1020.84 1020.68
1028.12 1027.24 1026.26 1025.20 1024.07 1022.90 1021.69 1020.49 1019.32 1018.21 1017.21 1016.32 1015.59 1015.01 1014.59 1014.33 1014.22 1014.23 1014.35 1014.56 1014.85 1015.19 1015.59 1016.02 1016.49 1016.99 1017.51 1018.05 1018.57 1019.07 1019.54 1019.95 1020.28 1020.54 1020.72 1020.82 1020.86 1020.85 1020.80 1020.73 1020.65 1020.55 1020.45
1028.81 1027.95 1027.00 1025.97 1024.87 1023.70 1022.49 1021.26 1020.03 1018.84 1017.71 1016.69 1015.80 1015.06 1014.47 1014.05 1013.78 1013.65 1013.66 1013.78 1014.00 1014.30 1014.67 1015.09 1015.56 1016.07 1016.61 1017.15 1017.70 1018.22 1018.70 1019.13 1019.50 1019.79 1020.01 1020.16 1020.25 1020.29 1020.30 1020.29 1020.27 1020.23 1020.20
1029.37 1028.54 1027.63 1026.66 1025.60 1024.48 1023.29 1022.07 1020.82 1019.58 1018.38 1017.25 1016.23 1015.34 1014.59 1014.00 1013.56 1013.28 1013.15 1013.14 1013.25 1013.46 1013.75 1014.12 1014.55 1015.02 1015.53 1016.06 1016.60 1017.12 1017.62 1018.08 1018.48 1018.83 1019.11 1019.34 1019.51 1019.64 1019.73 1019.81 1019.86 1019.91 1019.95
1029.75 1028.96 1028.12 1027.21 1026.23 1025.18 1024.06 1022.87 1021.64 1020.39 1019.15 1017.95 1016.83 1015.82 1014.93 1014.18 1013.59 1013.14 1012.83 1012.67 1012.63 1012.71 1012.88 1013.14 1013.47 1013.87 1014.31 1014.79 1015.30 1015.81 1016.32 1016.81 1017.27 1017.69 1018.06 1018.38 1018.66 1018.90 1019.11 1019.29 1019.44 1019.58 1019.70
1029.92 1029.20 1028.43 1027.61 1026.73 1025.77 1024.72 1023.60 1022.42 1021.20 1019.95 1018.73 1017.55 1016.44 1015.44 1014.56 1013.81 1013.19 1012.72 1012.38 1012.17 1012.07 1012.09 1012.19 1012.39 1012.67 1013.02 1013.43 1013.88 1014.37 1014.88 1015.40 1015.91 1016.41 1016.88 1017.32 1017.72 1018.09 1018.42 1018.72 1018.99 1019.22 1019.42
1029.89 1029.23 1028.56 1027.83 1027.05 1026.19 1025.24 1024.21 1023.10 1021.92 1020.71 1019.48 1018.27 1017.12 1016.04 1015.05 1014.17 1013.41 1012.78 1012.26 1011.87 1011.59 1011.42 1011.35 1011.39 1011.52 1011.74 1012.05 1012.43 1012.89 1013.39 1013.93 1014.49 1015.06 1015.63 1016.18 1016.71 1017.20 1017.65 1018.07 1018.44 1018.77 1019.06
1029.66 1029.09 1028.50 1027.88 1027.19 1026.42 1025.57 1024.62 1023.58 1022.47 1021.31 1020.11 1018.91 1017.74 1016.62 1015.57 1014.60 1013.72 1012.95 1012.28 1011.71 1011.25 1010.90 1010.65 1010.51 1010.48 1010.57 1010.76 1011.06 1011.45 1011.93 1012.47 1013.07 1013.70 1014.35 1014.99 1015.62 1016.22 1016.77 1017.29 1017.75 1018.17 1018.53
1029.29 1028.80 1028.29 1027.74 1027.13 1026.44 1025.66 1024.78 1023.82 1022.77 1021.67 1020.52 1019.36 1018.21 1017.09 1016.01 1015.00 1014.05 1013.18 1012.39 1011.68 1011.06 1010.54 1010.12 1009.81 1009.63 1009.56 1009.63 1009.83 1010.15 1010.58 1011.11 1011.71 1012.37 1013.06 1013.76 1014.45 1015.12 1015.75 1016.34 1016.87 1017.36 1017.78
1028.83 1028.39 1027.93 1027.43 1026.87 1026.23 1025.50 1024.67 1023.77 1022.78 1021.74 1020.66 1019.56 1018.46 1017.37 1016.32 1015.30 1014.33 1013.41 1012.54 1011.73 1010.99 1010.33 1009.77 1009.31 1008.97 1008.77 1008.71 1008.79 1009.02 1009.38 1009.86 1010.43 1011.07 1011.77 1012.49 1013.21 1013.91 1014.58 1015.21 1015.79 1016.33 1016.81
1028.29 1027.88 1027.45 1026.97 1026.43 1025.81 1025.10 1024.31 1023.43 1022.50 1021.52 1020.51 1019.48 1018.46 1017.44 1016.45 1015.47 1014.52 1013.59 1012.69 1011.83 1011.00 1010.24 1009.56 1008.97 1008.50 1008.16 1007.98 1007.94 1008.06 1008.33 1008.73 1009.24 1009.84 1010.50 1011.19 1011.90 1012.60 1013.28 1013.93 1014.54 1015.11 1015.64
1027.68 1027.29 1026.86 1026.38 1025.82 1025.19 1024.48 1023.70 1022.85 1021.96 1021.04 1020.10 1019.16 1018.23 1017.30 1016.39 1015.49 1014.59 1013.70 1012.80 1011.92 1011.06 1010.23 1009.45 1008.76 1008.17 1007.71 1007.40 1007.24 1007.24 1007.40 1007.70 1008.13 1008.65 1009.25 1009.90 1010.57 1011.24 1011.91 1012.56 1013.18 1013.78 1014.35
Thickness
5410 5410 5411 5412 5412 5413 5413 5413 5413 5412 5412 5412 5412 5411 5411 5411 5411 5411 5412 5413 5414 5415 5416 5417 5418 5419 5419 5421 5422 5423 5425 5426 5429 5433 5433 5436 5438 5440 5442 5444 5446 5448 5449
5398 5398 5399 5400 5400 5401 5401 5401 5401 5401 5400 5400 5400 5400 5400 5400 5400 5400 5401 5402 5403 5404 5405 5406 5407 5408 5409 5410 5412 5414 5415 5417 5419 5422 5423 5425 5427 5430 5432 5434 5436 5438 5440
5386 5386 5387 5387 5388 5389 5389 5390 5389 5389 5389 5389 5389 5389 5389 5389 5389 5390 5391 5391 5392 5393 5394 5395 5397 5398 5400 5401 5402 5403 5405 5407 5408 5411 5413 5415 5417 5419 5421 5423 5425 5428 5430
5374 5375 5375 5376 5376 5377 5377 5378 5378 5378 5378 5378 5377 5377 5377 5377 5377 5378 5379 5380 5381 5382 5383 5385 5386 5388 5390 5390 5392 5393 5394 5396 5398 5400 5402 5404 5406 5408 5410 5412 5415 5417 5419
5363 5363 5363 5363 5364 5365 5365 5366 5366 5366 5366 5366 5366 5365 5365 5365 5366 5367 5368 5369 5370 5372 5373 5374 5376 5377 5379 5380 5382 5383 5384 5385 5387 5390 5393 5394 5396 5397 5399 5401 5403 5405 5409
5352 5352 5352 5352 5352 5353 5354 5354 5354 5354 5354 5353 5354 5354 5353 5354 5355 5357 5357 5358 5359 5360 5362 5363 5365 5366 5368 5370 5372 5373 5374 5375 5376 5379 5383 5385 5387 5388 5388 5389 5390 5393 5397
5340 5340 5340 5340 5340 5341 5342 5342 5342 5342 5342 5342 5342 5342 5342 5343 5344 5345 5346 5346 5347 5348 5350 5351 5353 5354 5356 5358 5360 5362 5363 5364 5366 5369 5372 5374 5375 5378 5378 5378 5379 5381 5385
5328 5328 5328 5328 5329 5330 5330 5330 5330 5330 5330 5331 5331 5331 5331 5331 5332 5333 5334 5334 5335 5336 5337 5339 5340 5342 5344 5346 5347 5349 5351 5353 5355 5358 5361 5364 5364 5365 5367 5368 5367 5368 5371
5316 5317 5317 5317 5318 5319 5319 5318 5318 5318 5319 5319 5320 5320 5320 5320 5321 5322 5322 5322 5323 5323 5324 5326 5328 5330 5332 5334 5335 5337 5340 5342 5343 5346 5349 5351 5352 5354 5355 5354 5354 5355 5359
5305 5305 5306 5306 5307 5307 5308 5307 5307 5307 5308 5308 5309 5309 5309 5309 5310 5310 5311 5311 5312 5312 5313 5314 5316 5318 5320 5321 5322 5325 5327 5330 5332 5335 5337 5338 5340 5341 5342 5342 5343 5342 5344
5293 5294 5295 5296 5296 5296 5296 5296 5296 5296 5296 5297 5298 5298 5298 5298 5299 5299 5300 5300 5300 5300 5301 5302 5304 5306 5309 5310 5312 5314 5317 5318 5319 5321 5323 5324 5326 5328 5329 5329 5330 5331 5332
5282 5282 5283 5285 5285 5285 5284 5284 5284 5284 5284 5285 5285 5286 5287 5287 5287 5287 5288 5289 5289 5289 5290 5291 5292 5295 5297 5299 5300 5302 5304 5304 5305 5307 5308 5310 5312 5314 5315 5316 5317 5318 5319
5270 5271 5272 5273 5272 5273 5272 5272 5272 5272 5272 5273 5273 5274 5275 5275 5275 5276 5276 5277 5277 5278 5279 5280 5281 5283 5284 5285 5287 5289 5289 5289 5290 5292 5294 5296 5298 5299 5301 5302 5304 5305 5307
5258 5259 5260 5259 5260 5259 5259 5260 5260 5260 5260 5260 5261 5262 5263 5263 5264 5264 5264 5264 5265 5265 5266 5267 5268 5269 5270 5271 5272 5274 5275 5276 5277 5279 5280 5281 5283 5285 5288 5290 5291 5293 5294
5247 5247 5247 5247 5247 5247 5247 5247 5247 5248 5248 5250 5251 5251 5252 5253 5254 5254 5253 5253 5254 5255 5254 5254 5254 5254 5255 5256 5258 5259 5261 5262 5264 5264 5265 5267 5269 5273 5275 5277 5278 5280 5281
5236 5236 5235 5235 5234 5234 5234 5235 5236 5238 5239 5240 5241 5243 5243 5243 5243 5243 5243 5243 5243 5242 5241 5239 5240 5240 5241 5243 5245 5247 5248 5250 5251 5252 5253 5255 5257 5259 5262 5264 5266 5267 5268
5222 5223 5222 5222 5221 5221 5221 5221 5222 5225 5226 5227 5228 5230 5231 5231 5231 5231 5231 5231 5230 5229 5226 5225 5226 5227 5228 5230 5232 5233 5235 5237 5238 5240 5242 5244 5246 5248 5249 5251 5254 5256 5256
5210 5210 5210 5209 5209 5208 5208 5208 5208 5209 5210 5212 5213 5215 5217 5218 5219 5219 5218 5217 5214 5213 5211 5211 5213 5215 5216 5217 5219 5220 5222 5224 5226 5228 5230 5232 5234 5236 5238 5239 5242 5244 5244
5198 5198 5197 5197 5196 5196 5195 5195 5195 5195 5195 5196 5198 5200 5201 5202 5204 5204 5204 5201 5199 5199 5198 5199 5200 5202 5203 5205 5207 5208 5210 5212 5213 5215 5218 5219 5221 5224 5226 5228 5229 5231 5232
5187 5187 5186 5185 5184 5183 5183 5182 5182 5182 5182 5183 5184 5185 5186 5186 5187 5187 5187 5186 5185 5185 5186 5187 5188 5190 5191 5193 5195 5196 5198 5200 5202 5204 5205 5207 5209 5211 5214 5216 5217 5219 5221
5176 5175 5174 5173 5172 5171 5171 5170 5170 5169 5170 5170 5171 5173 5175 5174 5174 5173 5173 5173 5173 5173 5174 5175 5177 5179 5181 5182 5184 5186 5188 5189 5191 5193 5194 5195 5197 5199 5201 5204 5206 5207 5209
5165 5164 5163 5162 5161 5160 5159 5159 5158 5158 5158 5159 5160 5160 5162 5161 5161 5160 5160 5160 5161 5162 5163 5164 5166 5168 5170 5172 5174 5176 5178 5179 5180 5182 5183 5184 5186 5188 5190 5193 5194 5196 5197
5154 5153 5151 5150 5149 5149 5148 5147 5147 5147 5147 5147 5148 5148 5147 5147 5148 5148 5149 5149 5150 5152 5153 5155 5157 5159 5160 5162 5164 5166 5168 5170 5171 5172 5173 5175 5176 5178 5180 5182 5184 5185 5186
5142 5141 5140 5139 5138 5137 5137 5137 5136 5136 5136 5136 5136 5136 5136 5136 5137 5138 5138 5139 5140 5142 5143 5145 5147 5150 5152 5153 5154 5157 5159 5160 5162 5163 5165 5166 5168 5169 5171 5172 5173 5175 5176
5130 5130 5129 5128 5127 5126 5126 5126 5125 5125 5125 5125 5125 5125 5126 5127 5127 5128 5129 5130 5131 5133 5134 5136 5139 5141 5143 5145 5146 5148 5150 5152 5154 5156 5157 5158 5159 5160 5162 5163 5164 5165 5166
5119 5118 5117 5116 5116 5115 5115 5115 5114 5114 5114 5115 5115 5116 5117 5118 5118 5119 5121 5122 5123 5125 5126 5128 5131 5133 5135 5137 5139 5141 5143 5145 5147 5149 5150 5151 5151 5152 5153 5154 5154 5155 5156